KE9LZ-9 Weather Reports


time (UTC)temp
F
wind
direction
speed
knots
gust
knots
rain 1hr
in
rain 24hr
in
rain mn
in
humidity
%
barometer
mb
20260506140004 40 295 3.5 6.1 0.00 0.00 0.00 58 1012.9
20260506135004 40 0 1.7 7.0 0.00 0.00 0.00 59 1012.8
20260506134004 40 335 1.7 4.3 0.00 0.00 0.00 58 1012.8
20260506133004 39 54 0.9 6.1 0.00 0.00 0.00 60 1012.9
20260506132004 39 310 1.7 6.1 0.00 0.00 0.00 61 1012.9
20260506131004 38 15 1.7 5.2 0.00 0.00 0.00 63 1013.0
20260506130004 37 353 1.7 6.1 0.00 0.00 0.00 64 1013.1
20260506125004 37 3 1.7 5.2 0.00 0.00 0.00 65 1013.0
20260506122004 37 27 1.7 2.6 0.00 0.00 0.00 67 1012.7
20260506121004 36 56 1.7 4.3 0.00 0.00 0.00 69 1012.4
20260506120004 35 339 0.9 1.7 0.00 0.00 0.00 71 1012.4
20260506115003 35 319 0.9 2.6 0.00 0.00 0.00 72 1012.4
20260506114003 34 347 1.7 2.6 0.00 0.00 0.00 73 1012.3
20260506113003 34 333 1.7 2.6 0.00 0.00 0.00 74 1012.4
20260506112004 33 308 0.9 1.7 0.00 0.00 0.00 74 1012.2
20260506111004 33 324 0.0 0.9 0.00 0.00 0.00 77 1011.9
20260506105003 33 313 0.0 1.7 0.00 0.00 0.00 76 1011.9
20260506104003 33 311 0.0 1.7 0.00 0.00 0.00 74 1011.6
20260506103004 33 331 0.0 0.9 0.00 0.00 0.00 76 1011.6
20260506101004 33 44 0.0 0.9 0.00 0.00 0.00 76 1011.7
20260506100004 33 324 0.0 0.9 0.00 0.00 0.00 76 1011.6
20260506095004 33 29 0.0 0.9 0.00 0.00 0.00 77 1011.7
20260506093004 33 290 0.0 0.9 0.00 0.00 0.00 77 1011.7
20260506091004 33 5 0.0 0.0 0.00 0.00 0.00 76 1011.5
20260506090003 33 341 0.0 1.7 0.00 0.00 0.00 75 1011.5
20260506085003 33 43 0.0 0.9 0.00 0.00 0.00 74 1011.1
20260506084003 33 339 0.0 1.7 0.00 0.00 0.00 75 1011.4
20260506083004 33 339 0.0 1.7 0.00 0.00 0.00 73 1011.3
20260506081004 33 309 0.0 0.9 0.00 0.00 0.00 73 1011.2
20260506072004 32 317 0.0 0.9 0.00 0.00 0.00 75 1011.3
20260506071003 33 319 0.0 0.9 0.00 0.00 0.00 74 1011.3
20260506062004 34 330 0.0 0.9 0.00 0.00 0.00 71 1011.3
20260506061003 34 5 0.0 0.9 0.00 0.00 0.00 71 1011.3
20260506051003 34 26 0.9 0.9 0.00 0.00 0.00 69 1011.4
20260506045004 33 355 0.0 0.9 0.00 0.00 0.00 68 1011.1
20260506044004 33 315 0.0 0.9 0.00 0.00 0.00 70 1011.1
20260506043004 33 323 0.0 0.9 0.00 0.00 0.00 69 1011.0
20260506041003 33 351 0.0 0.9 0.00 0.00 0.00 68 1011.1
20260506040003 32 61 0.0 0.9 0.00 0.00 0.00 68 1010.9
20260506034004 30 17 0.0 0.9 0.00 0.00 0.00 72 1010.8
20260506033004 31 1 0.9 1.7 0.00 0.00 0.00 73 1010.7
20260506031003 31 337 0.9 0.9 0.00 0.00 0.00 68 1010.5
20260506030003 32 354 0.0 0.9 0.00 0.00 0.00 66 1010.4
20260506025004 33 326 0.0 0.9 0.00 0.00 0.00 66 1010.4
20260506024003 34 20 0.9 1.7 0.00 0.00 0.00 63 1010.3
20260506023004 34 355 0.9 0.9 0.00 0.00 0.00 62 1010.2
20260506022003 35 313 0.0 0.9 0.00 0.00 0.00 59 1010.1
20260506021004 36 13 0.9 0.9 0.00 0.00 0.00 59 1010.0
20260506015004 39 346 0.0 0.9 0.00 0.00 0.00 53 1009.9
20260506014004 40 22 0.0 0.9 0.00 0.00 0.00 51 1009.8
20260506012003 42 73 0.9 5.2 0.00 0.00 0.00 45 1009.6
20260506011004 43 337 0.9 6.1 0.00 0.00 0.00 44 1009.6
20260506010004 43 332 1.7 8.7 0.00 0.00 0.00 44 1009.6
20260506005004 44 285 2.6 10.4 0.00 0.00 0.00 43 1009.4
20260506004004 44 358 1.7 6.1 0.00 0.00 0.00 43 1009.4
20260506003004 44 300 4.3 8.7 0.00 0.00 0.00 42 1009.5
20260506002004 44 321 4.3 7.0 0.00 0.00 0.00 42 1009.3
20260506001004 45 310 2.6 7.8 0.00 0.00 0.00 42 1009.1
20260506000003 45 337 2.6 10.4 0.00 0.00 0.00 42 1009.3
20260505235004 45 310 5.2 10.4 0.00 0.00 0.00 41 1009.0
20260505234004 45 302 4.3 13.0 0.00 0.00 0.00 41 1008.8
20260505233003 46 327 3.5 8.7 0.00 0.00 0.00 41 1008.6
20260505231004 46 1 2.6 11.3 0.00 0.00 0.00 41 1008.7
20260505230004 47 313 3.5 8.7 0.00 0.00 0.00 41 1008.5
20260505225004 48 40 4.3 12.2 0.00 0.00 0.00 40 1008.3
20260505224004 47 322 4.3 12.2 0.00 0.00 0.00 39 1008.3
20260505223004 48 312 5.2 13.0 0.00 0.00 0.00 39 1008.2
20260505222003 48 311 3.5 7.0 0.00 0.00 0.00 40 1008.2
20260505221004 47 333 5.2 11.3 0.00 0.00 0.00 40 1008.0
20260505215004 48 330 2.6 13.0 0.00 0.00 0.00 39 1007.8
20260505214003 48 299 4.3 14.8 0.00 0.00 0.00 38 1007.8
20260505212004 48 300 6.1 13.9 0.00 0.00 0.00 37 1007.9
20260505211003 48 277 5.2 15.6 0.00 0.00 0.00 37 1007.6
20260505210004 48 316 5.2 12.2 0.00 0.00 0.00 38 1007.6
20260505205004 49 284 4.3 17.4 0.00 0.00 0.00 37 1007.5
20260505204004 49 274 7.0 15.6 0.00 0.00 0.00 36 1007.5
20260505203004 48 342 4.3 10.4 0.00 0.00 0.00 37 1007.5
20260505202004 48 287 3.5 13.9 0.00 0.00 0.00 37 1007.4
20260505201004 48 278 4.3 13.9 0.00 0.00 0.00 37 1007.4
20260505200003 49 257 6.1 17.4 0.00 0.00 0.00 37 1007.3
20260505195004 49 299 3.5 12.2 0.00 0.00 0.00 37 1007.2
20260505193003 49 280 7.0 13.9 0.00 0.00 0.00 37 1006.9
20260505192004 50 284 1.7 14.8 0.00 0.00 0.00 38 1006.8
20260505191004 50 340 4.3 12.2 0.00 0.00 0.00 36 1006.8
20260505190004 50 319 5.2 10.4 0.00 0.00 0.00 38 1006.6
20260505185004 50 286 5.2 11.3 0.00 0.00 0.00 37 1006.8
20260505184003 50 331 4.3 12.2 0.00 0.00 0.00 36 1006.6
20260505183004 53 351 5.2 10.4 0.00 0.00 0.00 33 1006.3
20260505182004 50 299 5.2 17.4 0.00 0.00 0.00 37 1006.3
20260505181004 49 266 2.6 12.2 0.00 0.00 0.00 39 1006.3
20260505180004 50 334 3.5 11.3 0.00 0.00 0.00 40 1006.0
20260505175004 48 265 5.2 11.3 0.00 0.00 0.00 39 1006.1
20260505174004 48 274 4.3 12.2 0.00 0.00 0.00 40 1006.1
20260505172004 48 278 5.2 14.8 0.00 0.00 0.00 40 1005.8
20260505171003 48 279 4.3 15.6 0.00 0.00 0.00 41 1005.7
20260505165004 47 286 6.1 12.2 0.00 0.00 0.00 40 1005.7
20260505164004 46 255 8.7 19.1 0.00 0.00 0.00 42 1005.9
20260505163005 49 230 4.3 10.4 0.00 0.00 0.00 39 1005.5
20260505161004 47 266 5.2 15.6 0.00 0.00 0.00 43 1005.7
20260505153004 47 261 2.6 7.0 0.00 0.00 0.00 43 1005.9
20260505152003 47 211 4.3 13.9 0.00 0.00 0.00 44 1005.8